WetterOnline ( http://www.wetteronline.de )

Wetter aktuell Rotenburg

Aktuelles Wetter: Bad Hersfeld (273m)

6-stündlich | Neueste Meldungen
Ortszeit Temperatur Wetter
Do, 29.06. 2:00 13.7° C Nebel
Mi, 28.06. 20:00 22.0° C bewölkt
Mi, 28.06. 14:00 19.5° C bewölkt
Mi, 28.06. 8:00 17.2° C bewölkt
Ortszeit Temperatur Wetter
Do, 29.06. 3:30 13.7° C Nebel
Do, 29.06. 3:00 13.8° C bedeckt
Do, 29.06. 2:30 14.3° C Nebel
Do, 29.06. 2:00 13.7° C Nebel
Do, 29.06. 1:30 14.4° C fast wolkenlos
Do, 29.06. 1:00 14.6° C fast wolkenlos
Ortszeit Relative Feuchte Sichtweite
Do, 29.06. 2:00 100% 0.3 km
Mi, 28.06. 20:00 69% 20 km
Mi, 28.06. 14:00 87% 15 km
Mi, 28.06. 8:00 86% 9 km
Ortszeit Relative Feuchte Sichtweite
Do, 29.06. 3:30 100% 100 m
Do, 29.06. 3:00 99% 7 km
Do, 29.06. 2:30 100% 0.2 km
Do, 29.06. 2:00 100% 0.3 km
Do, 29.06. 1:30 100% 7 km
Do, 29.06. 1:00 100% 9 km
Ortszeit Niederschlagsmenge Niederschlagsart
Do, 29.06. 2:00 0.0 l/m2 in 6 Std. -
Mi, 28.06. 20:00 6 l/m2 in 12 Std. Regen
Mi, 28.06. 14:00 6 l/m2 in 6 Std. Regen
Mi, 28.06. 8:00 0.0 l/m2 in 12 Std. -
Ortszeit Niederschlagsmenge Niederschlagsart
Do, 29.06. 3:30 keine Meldung -
Do, 29.06. 3:00 0.0 l/m2 in 1 Std. -
Do, 29.06. 2:30 keine Meldung -
Do, 29.06. 2:00 0.0 l/m2 in 1 Std. -
Do, 29.06. 1:30 keine Meldung -
Do, 29.06. 1:00 0.0 l/m2 in 1 Std. -
Ortszeit Stärke Spitze Richtung
km/h Bft. km/h Grad Sektor
Do, 29.06. 2:00 2 1 20 270° W
Mi, 28.06. 20:00 13 3 37 180° S
Mi, 28.06. 14:00 18 3 29 190° S
Mi, 28.06. 8:00 2 1 13 360° N
Ortszeit Stärke Spitze Richtung
km/h Bft. km/h Grad Sektor
Do, 29.06. 3:30 4 1 7 320° NW
Do, 29.06. 3:00 4 1 7 290° W
Do, 29.06. 2:30 0 0 4 - -
Do, 29.06. 2:00 2 1 4 270° W
Do, 29.06. 1:30 2 1 4 150° SO
Do, 29.06. 1:00 0 0 7 - -
Ortszeit Untergrenze Bedeckung Gattung
total tief tief mittel hoch
Do, 29.06. 2:00 60 m 6/8 3/8 - - -
Mi, 28.06. 20:00 960 m 7/8 7/8 - - -
Mi, 28.06. 14:00 420 m 8/8 7/8 - - -
Mi, 28.06. 8:00 2400 m 8/8 7/8 - - -
Ortszeit Bedeckungsgrad in Achtel und Wolkenuntergrenze
Do, 29.06. 3:30 7(30m) 7(9000m) 7(10500m)
Do, 29.06. 3:00 8(<30m) 8(10500m)
Do, 29.06. 2:30 8(<30m)
Do, 29.06. 2:00 3(60m) 6(9000m)
Do, 29.06. 1:30 1(9000m)
Do, 29.06. 1:00 1(9000m)
Ortszeit Luftdruck NN (hPa) Tendenz (hPa in 3 Std.)
Do, 29.06. 2:00 997 - 0,6
Mi, 28.06. 20:00 996 - 1,0
Mi, 28.06. 14:00 999 - 1,0
Mi, 28.06. 8:00 1001 - 0,9
Ortszeit Luftdruck NN (hPa) Tendenz (hPa in 3 Std.)
Do, 29.06. 3:30 996 - 0,8
Do, 29.06. 3:00 996 - 0,7
Do, 29.06. 2:30 997 - 0,6
Do, 29.06. 2:00 997 - 0,6
Do, 29.06. 1:30 997 - 0,8
Do, 29.06. 1:00 997 - 0,7
Ortszeit Schneehöhe (cm)
Do, 29.06. 2:00 -
Mi, 28.06. 20:00 -
Mi, 28.06. 14:00 -
Mi, 28.06. 8:00 -
Ortszeit Schneehöhe (cm)
Do, 29.06. 3:30 -
Do, 29.06. 3:00 -
Do, 29.06. 2:30 -
Do, 29.06. 2:00 -
Do, 29.06. 1:30 -
Do, 29.06. 1:00 -
Link zu dieser Seite / Seite empfehlen

Das Wetter in ...